Change the Weather History Date:

Thursday, March 28, 2013

  Actual Average Record
Temperature  
Mean Temperature 34 °F -  
Max Temperature 43 °F 45 °F 64 °F (2005)
Min Temperature 24 °F 28 °F 19 °F (2011)
Degree Days  
Heating Degree Days 32    
Moisture  
Dew Point 22 °F    
Average Humidity 64    
Maximum Humidity 84    
Minimum Humidity 40    
Precipitation  
Precipitation 0.00 in - - ()
Sea Level Pressure  
Sea Level Pressure 30.35 in    
Wind  
Wind Speed 2 mph (SE)    
Max Wind Speed 9 mph    
Max Gust Speed -    
Visibility 9 miles    
Events      
Averages and records for this station are not official NWS values.
T = Trace of Precipitation, MM = Missing Value Source: NWS Daily Summary

Daily Weather History Graph

Daily Weather History Graph

Search for Another Location

Airport or City:

Trip Planner

Search our weather history database for the weather conditions in past years. The results will help you decide how hot, cold, wet, or windy it might be!

Date:

Astronomy

Mar. 28, 2013 Rise Set
Actual Time 6:59 AM CDT 7:35 PM CDT
Civil Twilight 6:30 AM CDT 8:04 PM CDT
Nautical Twilight 5:55 AM CDT 8:39 PM CDT
Astronomical Twilight 5:19 AM CDT 9:16 PM CDT
Moon 9:34 PM CDT (3/28) 7:23 AM CDT (3/28)
Length of Visible Light 13h 34m
Length of Day
12h 35m
Full, 98% of the Moon is Illuminated
Mar 28
Full
Apr 2
Last Quarter
Apr 10
New
Apr 18
First Quarter
Apr 25
Full

Hourly Weather History & Observations

Time (CDT) Temp. Windchill Dew Point Humidity Pressure Visibility Wind Dir Wind Speed Gust Speed Precip Events Conditions
12:53 AM 28.9 °F - 19.9 °F 69% 30.37 in 10.0 mi Calm Calm - N/A   Clear
1:53 AM 28.0 °F - 19.9 °F 72% 30.38 in 10.0 mi Calm Calm - N/A   Clear
2:53 AM 27.0 °F - 19.9 °F 75% 30.37 in 10.0 mi Calm Calm - N/A   Clear
3:53 AM 26.1 °F - 19.9 °F 78% 30.36 in 9.0 mi Calm Calm - N/A   Clear
4:53 AM 25.0 °F - 19.9 °F 81% 30.37 in 9.0 mi Calm Calm - N/A   Clear
5:53 AM 24.1 °F - 19.0 °F 81% 30.37 in 7.0 mi Calm Calm - N/A   Clear
6:53 AM 24.1 °F - 19.9 °F 84% 30.37 in 7.0 mi Calm Calm - N/A   Clear
7:53 AM 24.1 °F 19.7 °F 19.9 °F 84% 30.38 in 6.0 mi East 3.5 mph - N/A   Clear
8:53 AM 28.0 °F - 21.9 °F 78% 30.38 in 5.0 mi Calm Calm - N/A   Haze
9:53 AM 33.1 °F - 23.0 °F 66% 30.38 in 6.0 mi Calm Calm - N/A   Haze
10:53 AM 37.0 °F - 21.9 °F 54% 30.38 in 8.0 mi Calm Calm - N/A   Clear
11:53 AM 39.9 °F 35.8 °F 19.9 °F 45% 30.38 in 10.0 mi SE 5.8 mph - N/A   Clear
12:53 PM 39.9 °F 33.9 °F 21.0 °F 47% 30.37 in 10.0 mi SE 9.2 mph - N/A   Clear
1:53 PM 42.1 °F - 19.0 °F 40% 30.36 in 10.0 mi Calm Calm - N/A   Clear
2:53 PM 42.1 °F 37.1 °F 23.0 °F 47% 30.34 in 10.0 mi SSE 8.1 mph - N/A   Clear
3:53 PM 43.0 °F 37.7 °F 21.9 °F 43% 30.32 in 10.0 mi South 9.2 mph - N/A   Clear
4:53 PM 42.1 °F 37.1 °F 21.9 °F 45% 30.32 in 10.0 mi SE 8.1 mph - N/A   Clear
5:53 PM 42.1 °F 37.7 °F 23.0 °F 47% 30.31 in 10.0 mi SSE 6.9 mph - N/A   Clear
6:53 PM 39.9 °F 35.1 °F 25.0 °F 55% 30.32 in 10.0 mi SSE 6.9 mph - N/A   Clear
7:53 PM 37.9 °F 34.4 °F 25.0 °F 60% 30.32 in 10.0 mi SSE 4.6 mph - N/A   Clear
8:53 PM 36.0 °F - 24.1 °F 62% 30.33 in 10.0 mi Calm Calm - N/A   Clear
9:53 PM 33.1 °F - 25.0 °F 72% 30.33 in 10.0 mi Calm Calm - N/A   Clear
10:53 PM 33.1 °F - 24.1 °F 70% 30.32 in 9.0 mi Calm Calm - N/A   Clear
11:53 PM 33.1 °F - 25.0 °F 72% 30.32 in 8.0 mi Calm Calm - N/A   Clear